This demonstration page uses our WeatherBlox Daily Observations layout. Learn more.

Left ArrowRight Arrow

Hourly Observations for May 3, 2021

Temp ( °F °C ) Dew Point ( °F °C ) Humidity (%) Winds ( mph kmh ) Pressure ( in mb ) Visibility ( mi km ) Precip ( " mm )
12:53 am 00:53 Cloudy with Light Rain 59 15 54 12.2 83 83 N N/A 29.78 1008 10 16 0.01 0.25
1:53 am 01:53 Cloudy with Light Rain 57 13.9 55 12.8 93 93 ESE 3 6 29.75 1008 10 16 0.02 0.51
2:53 am 02:53 Cloudy with Light Rain 58 14.4 55 12.8 90 90 ESE 3 6 29.73 1007 10 16 0.02 0.51
3:53 am 03:53 Cloudy with Light Rain 57 13.9 56 13.3 96 96 E 5 7 29.70 1006 10 16 0.02 0.51
4:13 am 04:13 Cloudy with Light Rain 58 14.4 56 13.3 93 93 E 5 7 29.71 1006 10 16 0.00 0.00
4:53 am 04:53 Cloudy 58 14.4 56 13.3 93 93 E 5 7 29.68 1005 10 16 0.00 0.00
5:13 am 05:13 Cloudy with Light Rain 58 14.4 56 13.3 93 93 E 6 9 29.69 1005 9 14 0.01 0.25
5:17 am 05:17 Cloudy with Light Rain 58 14.4 57 13.9 97 97 E 7 11 29.68 1005 9 14 0.01 0.25
5:29 am 05:29 Cloudy 58 14.4 57 13.9 97 97 VRB 6 9 29.67 1005 8 13 0.01 0.25
5:53 am 05:53 Cloudy with Rain 59 15 57 13.9 93 93 N N/A 29.65 1004 5 8 0.04 1.02
6:06 am 06:06 Cloudy with Light Rain 59 15 58 14.4 96 96 VRB 3 6 29.66 1004 7 11 0.01 0.25
6:17 am 06:17 Cloudy with Light Rain 59 15 58 14.4 96 96 ESE 8 13 29.66 1004 10 16 0.01 0.25
6:49 am 06:49 Cloudy with Light Rain 61 16 57 14 88 88 N N/A 29.65 1004 7 11 0.02 0.51
6:53 am 06:53 Cloudy with Light Rain 60 15.6 58 14.4 93 93 N N/A 29.65 1004 8 13 0.02 0.51
7:03 am 07:03 Cloudy with Light Rain 60 15.6 57 13.9 90 90 VRB 5 7 29.66 1004 9 14 0.00 0.00
7:12 am 07:12 Cloudy with Light Rain 60 15.6 58 14.4 93 93 VRB 3 6 29.66 1004 9 14 0.00 0.00
7:26 am 07:26 Cloudy with Light Rain 60 15.6 58 14.4 93 93 VRB 6 9 29.65 1004 9 14 0.01 0.25
7:53 am 07:53 Cloudy 60 15.6 58 14.4 93 93 VRB 3 6 29.65 1004 10 16 0.01 0.25
8:30 am 08:30 Cloudy with Light Rain 60 15.6 59 15 96 96 N N/A 29.66 1004 5 8 0.02 0.51
8:46 am 08:46 Cloudy with Light Rain 60 15.6 59 15 96 96 SE 5 7 29.65 1004 4 6 0.04 1.02
8:53 am 08:53 Cloudy with Light Rain 61 16.1 59 15 93 93 VRB 3 6 29.65 1004 7 11 0.04 1.02
9:53 am 09:53 Cloudy 65 18.3 62 16.7 90 90 VRB 3 6 29.63 1004 10 16 0.00 0.00
10:38 am 10:38 Cloudy 67 19.4 63 17.2 87 87 undefined N/A 29.62 1003 10 16 N/A
10:53 am 10:53 Cloudy 68 20 63 17.2 84 84 VRB 3 6 29.62 1003 10 16 N/A
11:53 am 11:53 Cloudy 70 21.1 63 17.2 79 79 VRB 7 11 29.62 1003 10 16 N/A
12:53 pm 12:53 Cloudy 71 21.7 64 17.8 79 79 VRB 5 7 29.62 1003 10 16 N/A
1:16 pm 13:16 Cloudy 72 22.2 64 17.8 76 76 WSW 9 15 29.61 1003 10 16 N/A
1:32 pm 13:32 Cloudy 70 21.1 64 17.8 82 82 WSW 10 17 29.60 1002 10 16 0.00 0.00
1:53 pm 13:53 Cloudy 70 21.1 64 17.8 82 82 WSW 10 17 29.62 1003 8 13 0.00 0.00
1:58 pm 13:58 Cloudy with Rain 68 20 64 17.8 87 87 SW 9 15 29.62 1003 2 3 0.03 0.76
2:05 pm 14:05 Cloudy with Rain 67 19.4 65 18.3 93 93 SW 7 11 29.62 1003 1 2 0.05 1.27
2:10 pm 14:10 Cloudy with Light Rain 67 19.4 65 18.3 93 93 VRB 5 7 29.62 1003 3 5 0.05 1.27
2:53 pm 14:53 Partly Cloudy 73 22.8 66 18.9 79 79 W 8 13 29.61 1003 10 16 0.06 1.52
3:36 pm 15:36 Cloudy 72 22.2 63 17.2 73 73 W 12 19 29.60 1002 10 16 N/A
3:53 pm 15:53 Cloudy 72 22.2 63 17.2 73 73 W 10 17 29.62 1003 10 16 N/A
4:53 pm 16:53 Partly Cloudy 74 23.3 63 17.2 69 69 W 9 15 29.62 1003 10 16 N/A
5:53 pm 17:53 Cloudy 73 22.8 62 16.7 69 69 WSW 9 15 29.64 1004 10 16 N/A
6:53 pm 18:53 Partly Cloudy 72 22.2 62 16.7 71 71 VRB 7 11 29.65 1004 10 16 N/A
7:53 pm 19:53 Partly Cloudy 71 21.7 63 17.2 76 76 W 3 6 29.67 1005 10 16 N/A
8:53 pm 20:53 Mostly Cloudy 66 18.9 63 17.2 90 90 N N/A 29.70 1006 10 16 N/A
9:53 pm 21:53 Cloudy 65 18.3 63 17.2 93 93 N N/A 29.72 1006 10 16 N/A
10:53 pm 22:53 Cloudy 65 18.3 63 17.2 93 93 N N/A 29.73 1007 10 16 N/A
11:53 pm 23:53 Mostly Clear 61 16.1 60 15.6 97 97 N N/A 29.73 1007 8 13 N/A

Powered by AerisWeather